Location: La Vallée de Crotte
(47.1831°N, 0.0943°E)
Time: 07:10:43
(UTC+00:00)

Daily predictions for brighter satellites

Satellite Brightness Start Highest point End
(mag) Time Altitude Azimuth Time Altitude Azimuth Time Altitude Azimuth
In-Cosmos 22 4.3 18:03:17 10° NNW 18:08:36 80° W 18:13:52 10° S
USA 215 3.6 18:03:23 10° NE 18:09:54 70° NNW 18:16:23 10° WSW
Tsikada Rocket 4.3 18:05:22 10° SSW 18:11:48 79° W 18:18:15 10° N
SL-4 R/B 2.8 18:08:56 10° WNW 18:13:12 49° N 18:17:43 10° E
ARGOS Delta rocket 4.3 18:10:48 10° NNE 18:15:57 45° E 18:20:47 10° SSE
Timation 2 Rocket 4.4 18:11:30 10° NNW 18:17:46 46° NE 18:23:43 10° SE
SAR-Lupe-3 4.5 18:14:24 10° SSE 18:17:57 78° ENE 18:21:32 10° N
SKYMED 3 4.4 18:14:08 10° NNE 18:18:16 74° ESE 18:22:22 10° S
BREEZE-M DEB (TANK) 4.1 18:16:21 10° SW 18:20:32 54° SE 18:36:00 10° ENE
Okean O Rocket 2.0 18:17:51 10° SE 18:21:56 41° ENE 18:26:03 10° N
Cosmos 2219 3.7 18:19:06 10° NNW 18:24:49 67° WSW 18:30:31 10° SSE
Cosmos 1242 Rocket 2.5 18:23:50 10° S 18:27:20 56° E 18:30:49 10° NNE
BREEZE M DEB (TANK) 4.3 18:23:20 10° SSW 18:28:49 19° SSE 18:31:25 11° ESE
Spot 1 3.9 18:25:07 10° NNE 18:29:24 70° ESE 18:33:29 10° S
SL-14 R/B 3.5 18:27:10 10° N 18:31:00 46° ENE 18:34:51 10° SSE
Cosmos 2263 Rocket 2.5 18:26:41 10° NNW 18:32:14 50° ENE 18:37:46 10° SE
Cosmos 2360 4.4 18:28:17 10° SSW 18:34:00 79° WNW 18:39:46 10° NNE
Cosmos 1805 3.3 18:30:21 10° S 18:34:08 56° E 18:37:57 10° NNE
Cosmos 1674 Rocket 3.8 18:31:14 10° N 18:35:29 46° ENE 18:39:44 10° SSE
YAOGAN 1 2.5 18:31:26 10° SSE 18:35:42 67° ENE 18:40:01 10° N
Cosmos 1726 2.6 18:34:29 10° SSE 18:37:50 36° E 18:41:14 10° NNE
COBE Rocket 3.8 18:33:06 10° SSE 18:38:00 79° ENE 18:42:47 10° N
SKYMED 2 4.3 18:34:08 10° N 18:38:26 58° WNW 18:42:41 10° SSW
OBJECT-B 1.9 18:38:57 17° ENE 18:39:09 17° ENE 18:40:58 10° NNE
H-2A R/B 4.5 18:39:28 10° ENE 18:39:47 10° ENE 18:40:29 10° NE
Cosmos 2082 3.8 18:37:59 10° NNW 18:43:45 85° WSW 18:49:29 10° SSE
Cosmos 1674 4.2 18:40:31 10° NNW 18:44:03 39° W 18:47:32 10° SSW
USA 267 4.1 18:39:45 10° SSE 18:46:03 48° SW 18:52:22 10° WNW
Cosmos 1766 3.7 18:44:28 10° SSE 18:48:06 39° E 18:51:48 10° NNE
Cosmos 1697 Rocket 3.4 18:46:24 10° SW 18:51:56 58° WNW 18:57:30 10° NNE
Cosmos 2279 Rocket 4.3 18:50:45 10° NNW 18:56:58 71° W 19:03:11 10° S
Cosmos 2221 Rocket 3.8 18:53:28 10° NNW 18:58:00 79° W 19:02:32 10° S
Cosmos 1975 Rocket 4.3 18:56:49 10° NNE 19:00:17 22° ENE 19:00:50 21° E
ASTEX 1 4.2 18:55:53 10° N 19:00:46 57° W 19:05:39 10° SSW
IGS 5A 4.1 18:59:49 22° ESE 19:01:48 35° ENE 19:05:35 10° N
Cosmos 1378 Rocket 3.5 19:00:18 10° N 19:04:43 90° NW 19:09:05 10° S
Resurs 01 Rocket 3.3 19:05:25 17° ENE 19:05:27 17° ENE 19:08:17 10° NNE
Cosmos 1733 4.1 19:04:38 10° SSW 19:08:18 50° WNW 19:11:57 10° N
Cosmos 968 Rocket 4.0 19:04:27 10° SSE 19:09:10 35° ESE 19:13:55 10° NE
Cosmos 1470 3.7 19:15:56 28° ENE 19:15:56 28° ENE 19:18:26 10° NNE
Cosmos 1733 Rocket 4.1 19:11:13 10° SSW 19:15:31 49° WNW 19:19:52 10° N
Meteor 2-14 Rocket 4.5 19:11:16 10° S 19:17:21 84° W 19:23:27 10° N
Cosmos 2084 4.3 19:18:11 10° WSW 19:21:50 43° NW 19:25:30 10° NNE
ISS -3.6 19:18:43 10° WNW 19:22:04 67° SSW 19:22:45 50° SSE
CZ-4B R/B 4.3 19:17:37 10° S 19:22:42 44° W 19:27:55 10° NNW
Cosmos 2322 Rocket 4.0 19:18:49 10° SSE 19:27:51 12° NE 19:28:19 10° NE
Cosmos 841 Rocket 4.3 19:20:19 10° NNW 19:25:20 51° WSW 19:30:17 10° S
CSL-04 Rocket 3.6 19:21:40 19° SSE 19:25:30 67° ENE 19:30:52 10° N
Okean-O 2.6 19:24:11 32° SE 19:26:03 60° ENE 19:30:25 10° N
Resurs 1-3 3.8 19:26:17 40° ESE 19:27:20 49° ENE 19:31:34 10° N
CZ-4 R/B 2.4 19:23:23 10° S 19:27:24 48° W 19:31:29 10° NNW
Gbstr 26 Del rocket 4.4 19:20:54 10° SW 19:28:32 76° SSE 19:34:42 19° ENE
SJ-6B 2.5 19:30:23 44° SSE 19:31:28 78° ENE 19:35:14 10° N
Cosmos 1980 Rocket 2.9 19:26:39 10° SW 19:32:11 56° WNW 19:37:44 10° NNE
Cosmos 1570 Rocket 3.9 19:27:21 10° NNW 19:32:38 69° ENE 19:34:49 35° SE
Meteor 1-12 Rocket 4.3 19:28:20 10° S 19:34:20 89° W 19:40:24 10° NNE
Meteor 2-21 Rocket 4.4 19:28:31 10° S 19:34:35 88° W 19:40:40 10° N
Cosmos 1627 Rocket 4.4 19:31:34 10° S 19:37:32 58° E 19:43:32 10° NNE
JB-3 4.3 19:34:48 10° NNE 19:38:37 58° E 19:38:37 58° E
USA 186 2.0 19:40:04 58° SSW 19:40:32 69° W 19:43:52 10° NNW
deb Chang Zheng 4 3.9 19:41:18 44° NE 19:41:18 44° NE 19:44:53 10° N
Cosmos 1428 Rocket 4.3 19:38:48 10° S 19:44:55 73° E 19:51:09 10° NNE
Cosmos 2195 Rocket 4.4 19:38:54 10° S 19:45:05 76° E 19:51:22 10° NNE
Cosmos 2278 3.9 19:41:47 10° SSW 19:47:28 73° WNW 19:53:11 10° NNE
Cosmos 1437 Rocket 2.7 19:45:17 10° SSW 19:49:02 75° WNW 19:52:48 10° N
Meteor 1-24 Rocket 3.4 19:44:02 10° N 19:49:22 81° ENE 19:51:25 39° SSE
SL-16 R/B 2.1 19:45:09 10° S 19:50:42 61° ESE 19:56:19 10° NNE
USA 215 4.3 19:47:18 14° NE 19:52:23 40° N 19:58:22 10° WNW
SL-4 R/B 2.1 19:48:27 10° WNW 19:53:01 86° SSW 19:53:27 73° SE
Cosmos 2208 Rocket 3.9 19:50:37 10° NNW 19:56:02 84° ENE 19:57:21 53° SSE
Okean O Rocket 4.0 19:55:03 10° SW 19:58:26 22° W 20:01:51 10° NW
Cosmos 1844 Rocket 2.9 19:53:16 10° NNW 19:58:50 52° ENE 19:59:17 51° ENE
Cosmos 1908 Rocket 4.5 19:55:40 10° SSW 19:59:50 47° WNW 20:04:03 10° N
Meteor 1-22 Rocket 4.1 19:54:57 10° S 20:00:19 87° WNW 20:05:56 10° N
Cosmos 2285 Rocket 4.4 19:55:23 10° NNW 20:01:38 62° WSW 20:05:47 22° S
USA 81 3.9 19:56:54 10° N 20:02:13 90° E 20:03:45 48° S
Landsat 5 4.2 19:58:01 10° N 20:02:27 57° WNW 20:06:49 10° SSW
Cosmos 2026 Rocket 3.8 19:56:30 10° S 20:02:34 86° E 20:08:40 10° N
Cosmos 2278 Rocket 4.3 20:00:00 10° N 20:02:35 13° NE 20:03:03 13° NE
Cosmos 1782 Rocket 3.6 20:06:54 65° SW 20:07:23 73° W 20:11:46 10° N
Cosmos 1553 Rocket 4.0 20:02:36 10° N 20:08:55 64° ENE 20:09:43 59° ESE
MOS 1 4.2 20:08:42 64° E 20:09:04 66° ENE 20:14:42 10° N
OBJECT-B 3.5 20:09:47 15° WNW 20:09:47 15° WNW 20:10:52 10° NW
H-2A R/B 3.4 20:15:56 40° NNW 20:15:56 40° NNW 20:18:31 10° NNW
Cosmos 2263 Rocket 3.9 20:11:04 10° NW 20:15:54 29° WSW 20:20:24 11° SSW
USA 281 4.1 20:16:22 32° NE 20:16:38 32° NE 20:22:19 10° N
Cosmos 1844 3.7 20:14:57 10° NNW 20:20:06 62° NE 20:20:06 62° NE
Meteor 2-5 Rocket 4.4 20:15:37 10° NNW 20:20:58 50° W 20:23:46 26° SSW
Cosmos 1025 Rocket 3.9 20:24:36 10° NNW 20:28:10 48° WNW 20:28:10 48° WNW
SPOT 1/Viking Rocket 3.7 20:32:06 70° NNW 20:32:06 70° NNW 20:36:41 10° NNW
Cosmos 1975 Rocket 4.3 20:34:09 10° NNW 20:37:59 39° W 20:37:59 39° W
Resurs 01 Rocket 2.9 20:42:59 38° NW 20:42:59 38° NW 20:45:52 10° NNW
Ariane Rocket 4.2 21:05:27 38° NNW 21:05:27 38° NNW 21:08:38 10° NNW
Terra 4.1 21:07:10 17° N 21:07:10 17° N 21:08:23 10° N
Cosmos 2322 Rocket 3.5 21:01:45 10° SW 21:09:30 34° N 21:12:54 10° NNE
ATLAS 2AS CENTAUR R/B 4.2 21:01:49 10° NW 21:07:43 25° NNE 21:09:00 24° NE
NOSS 3-4 (A) 4.3 21:12:54 10° NW 21:18:30 52° N 21:18:30 52° N
NOSS 3-4 (C) 4.3 21:13:00 10° NW 21:18:36 52° N 21:18:36 52° N
USA 215 4.1 21:34:39 41° N 21:34:39 41° N 21:40:34 10° NW
SL-16 R/B 4.0 21:30:28 10° WSW 21:35:14 27° NW 21:40:02 10° N
Cosmos 2278 Rocket 4.1 21:42:33 10° NNW 21:44:53 24° N 21:44:53 24° N
USA 281 4.3 22:03:15 39° NW 22:03:15 39° NW 22:07:18 10° NNW
ATLAS 2AS CENTAUR R/B 4.4 22:53:06 10° NW 22:56:24 28° NNW 22:56:24 28° NNW
